SAS1245 ENBR-EKCH

Flight info

Callsign SAS1245
Flight time 0h 58m
Altitude 31000
Route TUXIL DCT ZOL DCT TESPI
Aircraft B738/M-SDE2E3FGHIRWXY/LB1

Departure

Time 2026-04-24 09:25
Airport Bergen Airport, Flesland (ENBR)

Arrival

Time 2026-04-24 10:24
Airport Copenhagen Kastrup Airport (EKCH)
Time Latitude Longitude Altitude Speed Heading
2026-04-24 09:15 60.28968 5.22565 150 ft 0 kts 144°
2026-04-24 09:18 60.28969 5.22563 150 ft 0 kts 143°
2026-04-24 09:18 60.28983 5.22539 150 ft 3 kts 129°
2026-04-24 09:19 60.28998 5.22507 150 ft 3 kts 139°
2026-04-24 09:19 60.29010 5.22484 150 ft 2 kts 149°
2026-04-24 09:19 60.29020 5.22475 150 ft 2 kts 180°
2026-04-24 09:19 60.29031 5.22481 151 ft 2 kts 225°
2026-04-24 09:20 60.29038 5.22499 151 ft 2 kts 248°
2026-04-24 09:20 60.29041 5.22520 151 ft 2 kts 259°
2026-04-24 09:20 60.29041 5.22525 150 ft 0 kts 261°
2026-04-24 09:21 60.29041 5.22524 150 ft 1 kts 261°
2026-04-24 09:21 60.29035 5.22439 150 ft 9 kts 261°
2026-04-24 09:22 60.28989 5.22380 150 ft 9 kts 178°
2026-04-24 09:22 60.28940 5.22337 150 ft 9 kts 252°
2026-04-24 09:22 60.28891 5.22288 149 ft 9 kts 176°
2026-04-24 09:22 60.28818 5.22316 149 ft 12 kts 169°
2026-04-24 09:23 60.28724 5.22347 148 ft 15 kts 172°
2026-04-24 09:23 60.28619 5.22379 147 ft 15 kts 169°
2026-04-24 09:23 60.28518 5.22414 146 ft 14 kts 171°
2026-04-24 09:23 60.28415 5.22449 145 ft 17 kts 171°
2026-04-24 09:24 60.28302 5.22458 144 ft 17 kts 214°
2026-04-24 09:24 60.28285 5.22243 144 ft 16 kts 286°
2026-04-24 09:24 60.28339 5.22154 146 ft 0 kts 350°
2026-04-24 09:25 60.28524 5.22090 149 ft 69 kts 350°
2026-04-24 09:25 60.29275 5.21843 197 ft 142 kts 349°
2026-04-24 09:25 60.30302 5.21537 1054 ft 153 kts 349°
2026-04-24 09:26 60.31382 5.21172 2113 ft 159 kts 350°
2026-04-24 09:26 60.32555 5.20793 2872 ft 186 kts 351°
2026-04-24 09:26 60.33952 5.20347 3337 ft 214 kts 351°
2026-04-24 09:26 60.35490 5.19846 3933 ft 237 kts 351°
2026-04-24 09:27 60.37146 5.19294 5007 ft 242 kts 349°
2026-04-24 09:27 60.38747 5.18341 6209 ft 242 kts 327°
2026-04-24 09:27 60.39839 5.15746 7268 ft 251 kts 294°
2026-04-24 09:27 60.40022 5.12208 8358 ft 261 kts 268°
2026-04-24 09:28 60.39507 5.08620 9409 ft 273 kts 249°
2026-04-24 09:28 60.38347 5.05486 10440 ft 288 kts 227°
2026-04-24 09:28 60.36565 5.03305 11005 ft 320 kts 204°
2026-04-24 09:28 60.34253 5.02674 11511 ft 347 kts 179°
2026-04-24 09:29 60.31856 5.03679 12361 ft 358 kts 160°
2026-04-24 09:29 60.29642 5.06053 13286 ft 364 kts 147°
2026-04-24 09:29 60.27565 5.09038 14139 ft 370 kts 143°
2026-04-24 09:29 60.25516 5.12235 14847 ft 376 kts 142°
2026-04-24 09:30 60.23439 5.15500 15521 ft 383 kts 142°
2026-04-24 09:30 60.21298 5.18805 16233 ft 389 kts 143°
2026-04-24 09:30 60.19120 5.22091 16914 ft 394 kts 144°
2026-04-24 09:30 60.16894 5.25383 17589 ft 400 kts 144°
2026-04-24 09:31 60.14631 5.28660 18234 ft 405 kts 145°
2026-04-24 09:31 60.12313 5.31969 18810 ft 410 kts 145°
2026-04-24 09:31 60.10005 5.35244 19444 ft 413 kts 145°
2026-04-24 09:31 60.07651 5.38577 20056 ft 417 kts 145°
2026-04-24 09:32 60.05269 5.41946 20567 ft 422 kts 146°
2026-04-24 09:32 60.02851 5.45363 21062 ft 428 kts 146°
2026-04-24 09:32 60.00399 5.48826 21647 ft 432 kts 145°
2026-04-24 09:32 59.97938 5.52300 22248 ft 435 kts 146°
2026-04-24 09:33 59.95457 5.55798 22804 ft 439 kts 146°
2026-04-24 09:33 59.92952 5.59323 23344 ft 443 kts 146°
2026-04-24 09:33 59.90423 5.62877 23858 ft 447 kts 146°
2026-04-24 09:33 59.87868 5.66458 24300 ft 450 kts 146°
2026-04-24 09:34 59.85294 5.70060 24763 ft 453 kts 146°
2026-04-24 09:34 59.82706 5.73673 25234 ft 456 kts 146°
2026-04-24 09:34 59.80104 5.77300 25681 ft 458 kts 146°
2026-04-24 09:34 59.77482 5.80947 26109 ft 462 kts 146°
2026-04-24 09:35 59.74846 5.84607 26547 ft 463 kts 147°
2026-04-24 09:35 59.72247 5.88209 27157 ft 460 kts 147°
2026-04-24 09:35 59.69627 5.91834 27795 ft 458 kts 147°
2026-04-24 09:35 59.67017 5.95438 28332 ft 458 kts 147°
2026-04-24 09:36 59.64404 5.99038 28854 ft 458 kts 147°
2026-04-24 09:36 59.61786 6.02636 29385 ft 458 kts 147°
2026-04-24 09:36 59.59178 6.06215 29961 ft 456 kts 147°
2026-04-24 09:36 59.56566 6.09793 30472 ft 455 kts 147°
2026-04-24 09:37 59.53964 6.13350 30900 ft 455 kts 147°
2026-04-24 09:37 59.51357 6.16904 31235 ft 456 kts 147°
2026-04-24 09:37 59.46042 6.24123 31251 ft 472 kts 147°
2026-04-24 09:38 59.40534 6.31582 31238 ft 489 kts 148°
2026-04-24 09:38 59.34831 6.39279 31247 ft 506 kts 148°
2026-04-24 09:39 59.29120 6.47742 31277 ft 524 kts 143°
2026-04-24 09:39 59.23463 6.56952 31238 ft 531 kts 142°
2026-04-24 09:40 59.17785 6.66192 31234 ft 531 kts 142°
2026-04-24 09:40 59.12070 6.75305 31176 ft 529 kts 143°
2026-04-24 09:41 59.06396 6.84235 31201 ft 528 kts 143°
2026-04-24 09:41 59.00673 6.93185 31188 ft 527 kts 143°
2026-04-24 09:42 58.95918 7.00599 31253 ft 527 kts 144°
2026-04-24 09:42 58.90180 7.09511 31197 ft 529 kts 144°
2026-04-24 09:43 58.84421 7.18426 31166 ft 531 kts 144°
2026-04-24 09:43 58.78657 7.27311 31140 ft 530 kts 144°
2026-04-24 09:44 58.72875 7.36183 31134 ft 530 kts 144°
2026-04-24 09:44 58.67105 7.44996 31129 ft 530 kts 144°
2026-04-24 09:45 58.61324 7.53791 31124 ft 530 kts 145°
2026-04-24 09:45 58.55582 7.62483 31123 ft 529 kts 145°
2026-04-24 09:46 58.49802 7.71196 31119 ft 528 kts 145°
2026-04-24 09:46 58.44034 7.79856 31114 ft 527 kts 145°
2026-04-24 09:47 58.38301 7.88426 31119 ft 527 kts 145°
2026-04-24 09:47 58.32528 7.97018 31105 ft 527 kts 145°
2026-04-24 09:48 58.26752 8.05580 31104 ft 527 kts 145°
2026-04-24 09:48 58.20976 8.14105 31061 ft 523 kts 146°
2026-04-24 09:49 58.15266 8.22509 31088 ft 517 kts 146°
2026-04-24 09:49 58.09586 8.30821 31098 ft 514 kts 146°
2026-04-24 09:50 58.03928 8.39060 31122 ft 512 kts 146°
2026-04-24 09:50 57.98280 8.47256 31136 ft 512 kts 146°
2026-04-24 09:51 57.92632 8.55420 31136 ft 511 kts 146°
2026-04-24 09:51 57.87020 8.63496 31132 ft 511 kts 146°
2026-04-24 09:52 57.81369 8.71602 31143 ft 511 kts 146°
2026-04-24 09:52 57.75718 8.79674 31142 ft 510 kts 146°
2026-04-24 09:53 57.70067 8.87711 31142 ft 510 kts 146°
2026-04-24 09:53 57.64405 8.95734 31142 ft 511 kts 146°
2026-04-24 09:54 57.58747 9.03719 31117 ft 509 kts 146°
2026-04-24 09:54 57.53106 9.11655 31129 ft 507 kts 146°
2026-04-24 09:55 57.47463 9.19551 31132 ft 506 kts 146°
2026-04-24 09:55 57.41832 9.27398 31134 ft 506 kts 146°
2026-04-24 09:56 57.36201 9.35218 31133 ft 505 kts 146°
2026-04-24 09:56 57.30569 9.43009 31126 ft 505 kts 146°
2026-04-24 09:57 57.24939 9.50763 31113 ft 504 kts 146°
2026-04-24 09:57 57.19303 9.58492 31112 ft 505 kts 146°
2026-04-24 09:58 57.13658 9.66207 31108 ft 506 kts 146°
2026-04-24 09:58 57.07991 9.73925 31105 ft 507 kts 146°
2026-04-24 09:59 57.02356 9.81571 31104 ft 508 kts 146°
2026-04-24 09:59 56.96631 9.89311 31101 ft 507 kts 146°
2026-04-24 10:00 56.90990 9.96907 31119 ft 506 kts 146°
2026-04-24 10:00 56.85309 10.04526 31138 ft 506 kts 146°
2026-04-24 10:01 56.79610 10.12140 31128 ft 507 kts 146°
2026-04-24 10:01 56.73905 10.19732 31124 ft 507 kts 146°
2026-04-24 10:02 56.68204 10.27291 31094 ft 507 kts 146°
2026-04-24 10:02 56.62510 10.34811 31124 ft 506 kts 146°
2026-04-24 10:03 56.59651 10.38576 30662 ft 511 kts 146°
2026-04-24 10:03 56.56820 10.42297 30181 ft 504 kts 146°
2026-04-24 10:03 56.53993 10.46015 29502 ft 498 kts 145°
2026-04-24 10:03 56.51396 10.50067 28733 ft 488 kts 135°
2026-04-24 10:04 56.49238 10.54763 27755 ft 482 kts 126°
2026-04-24 10:04 56.47501 10.59902 26747 ft 478 kts 116°
2026-04-24 10:04 56.46044 10.65264 25827 ft 472 kts 116°
2026-04-24 10:04 56.44615 10.70566 24967 ft 465 kts 116°
2026-04-24 10:05 56.43202 10.75777 24125 ft 459 kts 116°
2026-04-24 10:05 56.41794 10.80921 23226 ft 453 kts 116°
2026-04-24 10:05 56.40394 10.85982 22279 ft 447 kts 116°
2026-04-24 10:05 56.38997 10.90936 21693 ft 434 kts 117°
2026-04-24 10:06 56.37455 10.95485 21081 ft 421 kts 128°
2026-04-24 10:06 56.33109 11.02709 19262 ft 429 kts 142°
2026-04-24 10:06 56.30822 11.06015 18716 ft 426 kts 142°
2026-04-24 10:07 56.28528 11.09368 18171 ft 423 kts 141°
2026-04-24 10:07 56.26263 11.12708 17604 ft 419 kts 141°
2026-04-24 10:07 56.24020 11.16032 17067 ft 416 kts 141°
2026-04-24 10:07 56.21795 11.19334 16549 ft 412 kts 141°
2026-04-24 10:08 56.19598 11.22596 16049 ft 408 kts 141°
2026-04-24 10:08 56.17414 11.25834 15552 ft 405 kts 141°
2026-04-24 10:08 56.15245 11.29047 15056 ft 403 kts 141°
2026-04-24 10:08 56.13089 11.32233 14564 ft 400 kts 140°
2026-04-24 10:09 56.10945 11.35398 14070 ft 398 kts 140°
2026-04-24 10:09 56.08810 11.38543 13518 ft 397 kts 140°
2026-04-24 10:09 56.06686 11.41668 13014 ft 394 kts 140°
2026-04-24 10:09 56.04578 11.44764 12514 ft 391 kts 140°
2026-04-24 10:10 56.02485 11.47833 11998 ft 388 kts 140°
2026-04-24 10:10 56.00436 11.50835 11528 ft 384 kts 140°
2026-04-24 10:10 55.98375 11.53849 11073 ft 381 kts 139°
2026-04-24 10:10 55.96357 11.56795 10924 ft 368 kts 139°
2026-04-24 10:11 55.94406 11.59641 10758 ft 357 kts 140°
2026-04-24 10:11 55.92508 11.62402 10603 ft 347 kts 139°
2026-04-24 10:11 55.90663 11.65087 10446 ft 338 kts 139°
2026-04-24 10:11 55.88888 11.67664 10313 ft 320 kts 139°
2026-04-24 10:12 55.87203 11.70109 10152 ft 306 kts 139°
2026-04-24 10:12 55.85569 11.72477 9745 ft 302 kts 139°
2026-04-24 10:12 55.83945 11.74831 9269 ft 300 kts 139°
2026-04-24 10:12 55.82333 11.77165 8825 ft 297 kts 139°
2026-04-24 10:13 55.80739 11.79470 8376 ft 294 kts 139°
2026-04-24 10:13 55.79161 11.81748 7946 ft 291 kts 139°
2026-04-24 10:13 55.77606 11.83989 7608 ft 285 kts 139°
2026-04-24 10:13 55.76075 11.86194 7338 ft 283 kts 139°
2026-04-24 10:14 55.74549 11.88393 7086 ft 282 kts 139°
2026-04-24 10:14 55.73022 11.90591 6795 ft 282 kts 139°
2026-04-24 10:14 55.71502 11.92774 6527 ft 281 kts 139°
2026-04-24 10:14 55.69982 11.94952 6243 ft 280 kts 139°
2026-04-24 10:15 55.68468 11.97121 5957 ft 279 kts 139°
2026-04-24 10:15 55.66954 11.99289 5680 ft 279 kts 139°
2026-04-24 10:15 55.65443 12.01451 5401 ft 278 kts 139°
2026-04-24 10:15 55.63962 12.03567 5140 ft 278 kts 140°
2026-04-24 10:16 55.62455 12.05716 4863 ft 278 kts 140°
2026-04-24 10:16 55.60955 12.07856 4586 ft 277 kts 140°
2026-04-24 10:16 55.59456 12.09990 4298 ft 276 kts 140°
2026-04-24 10:16 55.57964 12.12111 4033 ft 275 kts 140°
2026-04-24 10:17 55.56483 12.14217 3739 ft 270 kts 140°
2026-04-24 10:17 55.55021 12.16295 3342 ft 269 kts 140°
2026-04-24 10:17 55.53565 12.18367 3061 ft 269 kts 140°
2026-04-24 10:17 55.52130 12.20407 3007 ft 260 kts 140°
2026-04-24 10:18 55.50738 12.22373 2997 ft 252 kts 140°
2026-04-24 10:18 55.49406 12.24260 3029 ft 246 kts 138°
2026-04-24 10:18 55.48126 12.26308 3031 ft 245 kts 135°
2026-04-24 10:18 55.46886 12.28379 3025 ft 246 kts 132°
2026-04-24 10:19 55.46094 12.30957 3017 ft 238 kts 94°
2026-04-24 10:19 55.46068 12.33818 3018 ft 237 kts 84°
2026-04-24 10:19 55.46093 12.36725 3006 ft 237 kts 85°
2026-04-24 10:19 55.46224 12.39581 2980 ft 230 kts 68°
2026-04-24 10:20 55.47112 12.41734 3010 ft 214 kts 33°
2026-04-24 10:20 55.48311 12.43352 2873 ft 221 kts 37°
2026-04-24 10:20 55.49467 12.45176 2588 ft 224 kts 38°
2026-04-24 10:20 55.50603 12.46974 2289 ft 214 kts 37°
2026-04-24 10:21 55.51709 12.48695 2009 ft 213 kts 37°
2026-04-24 10:21 55.52835 12.50442 1714 ft 217 kts 38°
2026-04-24 10:21 55.53963 12.52195 1412 ft 211 kts 38°
2026-04-24 10:21 55.55026 12.53849 1111 ft 197 kts 38°
2026-04-24 10:22 55.56013 12.55379 890 ft 179 kts 38°
2026-04-24 10:22 55.56892 12.56744 636 ft 165 kts 38°
2026-04-24 10:22 55.57704 12.58033 429 ft 147 kts 38°
2026-04-24 10:22 55.58460 12.59165 233 ft 143 kts 40°
2026-04-24 10:23 55.59198 12.60315 70 ft 139 kts 40°
2026-04-24 10:23 55.59886 12.61379 16 ft 116 kts 41°
2026-04-24 10:23 55.60382 12.62149 16 ft 73 kts 41°
2026-04-24 10:23 55.60716 12.62666 19 ft 59 kts 39°
2026-04-24 10:24 55.60959 12.62863 17 ft 33 kts 11°
2026-04-24 10:24 55.61012 12.62881 16 ft 0 kts 11°
2026-04-24 10:24 55.61062 12.62899 16 ft 14 kts 11°
2026-04-24 10:25 55.61175 12.62998 17 ft 22 kts 41°
2026-04-24 10:25 55.61308 12.63202 16 ft 26 kts 40°
2026-04-24 10:25 55.61441 12.63409 18 ft 25 kts 41°
2026-04-24 10:25 55.61565 12.63598 16 ft 23 kts 40°
2026-04-24 10:26 55.61681 12.63782 16 ft 22 kts 41°
2026-04-24 10:26 55.61797 12.63959 16 ft 22 kts 40°
2026-04-24 10:26 55.61916 12.64110 18 ft 21 kts 25°
2026-04-24 10:26 55.62045 12.64216 16 ft 20 kts 25°
2026-04-24 10:27 55.62168 12.64320 16 ft 19 kts 25°
2026-04-24 10:27 55.62291 12.64404 15 ft 19 kts 16°
2026-04-24 10:27 55.62413 12.64462 16 ft 18 kts 14°
2026-04-24 10:27 55.62518 12.64418 16 ft 17 kts 303°
2026-04-24 10:28 55.62586 12.64262 16 ft 13 kts 343°
2026-04-24 10:28 55.62640 12.64294 16 ft 13 kts 25°
2026-04-24 10:28 55.62719 12.64355 16 ft 12 kts 26°
2026-04-24 10:28 55.62757 12.64427 16 ft 4 kts 103°
2026-04-24 10:29 55.62753 12.64467 16 ft 0 kts 101°